[[{"header":{"parameterUnit":"m.s-1","parameterCategory":1,"la1":30.2991,"la2":30.254,"lo1":-89.0895,"lo2":-89.0444,"dy":0.0017,"dx":0.0017,"nx":28,"ny":28,"refTime":"2025-09-11T21:00:00:Z","depth":0,"parameterNumber":2,"parameterNumberName":"U-component_of_WINDS"},"data":[0,0,0,0,0,0,0,0,0,0,0,0,0,0,0,0,0,0,0,0,0,0,0,0,0,0,0,0,0,0,0,0,0,0,0,0,0,0,0,0,0,0,0,0,0,0,0,0,0,0,0,0,0,0,0,0,0,0,-1.1799,-1.1798,0,-1.1686,-1.1684,-1.1683,-1.164,-1.164,-1.1641,-1.1641,-1.1523,-1.152,-1.1517,0,0,0,0,0,0,0,0,0,0,0,0,0,-1.1977,-1.1974,-1.1799,-1.1798,-1.1796,-1.1686,-1.1684,-1.1683,-1.164,-1.164,-1.1641,-1.1641,-1.1525,-1.152,-1.1516,0,0,0,0,0,0,0,0,0,0,0,0,0,-1.1886,-1.1973,-1.1799,-1.1762,-1.1757,-1.1686,-1.1684,-1.1682,-1.164,-1.164,-1.1641,-1.1641,-1.1526,-1.1521,-1.1516,-1.1473,0,0,-1.15,-1.1498,0,0,0,0,0,0,0,0,-1.1891,-1.1879,-1.1769,-1.1764,-1.1759,-1.1678,-1.1704,-1.1612,-1.164,-1.1684,-1.1641,-1.1642,-1.1574,-1.1565,-1.1543,-1.1468,-1.1463,-1.1499,-1.1496,-1.1494,-1.1493,0,0,0,0,0,0,0,-1.1897,-1.1884,-1.1754,-1.1767,-1.1761,-1.175,-1.1738,-1.1686,-1.1628,-1.1681,-1.1677,-1.1664,-1.1572,-1.1548,-1.154,-1.1461,-1.15,-1.1495,-1.1492,-1.149,-1.1347,-1.1346,0,0,0,0,0,0,-1.191,-1.1889,-1.1758,-1.1751,-1.1828,-1.1746,-1.1733,-1.1703,-1.1628,-1.1617,-1.1664,-1.1663,-1.1556,-1.1546,-1.1535,-1.1481,-1.1494,-1.1489,-1.1486,-1.1348,-1.1347,-1.1346,0,0,0,0,0,0,-1.1914,-1.1899,-1.1762,-1.1819,-1.1801,-1.1743,-1.171,-1.1701,-1.1677,-1.1616,-1.1605,-1.1651,-1.1556,-1.1542,-1.1489,-1.1476,-1.1487,-1.1482,-1.1348,-1.1347,-1.1346,-1.1373,0,0,0,0,0,0,-1.1919,-1.19,-1.1884,-1.1819,-1.1798,-1.1719,-1.1709,-1.1698,-1.1668,-1.1665,-1.16,-1.159,-1.1556,-1.1497,-1.1484,-1.1469,-1.1478,-1.1349,-1.1348,-1.1347,-1.1373,-1.1373,-1.1373,0,0,0,0,0,-1.1926,-1.1895,-1.1883,-1.1868,-1.1776,-1.1718,-1.1706,-1.1668,-1.1667,-1.165,-1.1611,-1.1592,-1.148,-1.1492,-1.1477,-1.1461,-1.135,-1.1348,-1.1347,-1.1373,-1.1373,-1.1373,0,0,0,0,0,0,-1.1959,-1.1886,-1.1872,-1.1819,-1.1775,-1.1711,-1.1688,-1.1669,-1.1623,-1.1623,-1.1577,-1.1562,-1.1513,-1.1482,-1.1496,-1.1416,-1.1414,-1.1409,-1.1439,-1.1438,-1.1438,-1.1446,-1.1474,0,0,0,0,0,-1.196,-1.1919,-1.1858,-1.1817,-1.1796,-1.1746,-1.1719,-1.1694,-1.1646,-1.1627,-1.1584,-1.1538,-1.1493,-1.1464,-1.1419,-1.1368,-1.1354,-1.135,-1.135,-1.135,-1.1346,-1.1318,-1.1316,-1.1341,-1.1341,-1.1341,0,0,-1.1962,-1.1917,-1.1894,-1.1823,-1.1785,-1.1744,-1.173,-1.1687,-1.1656,-1.162,-1.1568,-1.1535,-1.1481,-1.1429,-1.1404,-1.1401,-1.1336,-1.1348,-1.1349,-1.1345,-1.1316,-1.1314,-1.1312,-1.134,-1.134,-1.134,0,0,-1.1944,-1.1906,-1.1868,-1.1832,-1.1777,-1.1744,-1.1735,-1.1674,-1.1651,-1.1598,-1.157,-1.1533,-1.1455,-1.1418,-1.1389,-1.136,-1.134,-1.1346,-1.1346,-1.1319,-1.1317,-1.1315,-1.1305,-1.1301,-1.1343,-1.1343,-1.1343,0,-1.1953,-1.189,-1.1851,-1.181,-1.1779,-1.1747,-1.1708,-1.1675,-1.1607,-1.1587,-1.1585,-1.1488,-1.1449,-1.1389,-1.1382,-1.1359,-1.1348,-1.1353,-1.132,-1.1318,-1.1316,-1.1305,-1.1301,-1.1344,-1.1344,-1.1344,-1.1344,0,-1.1904,-1.1861,-1.1837,-1.1774,-1.1741,-1.1701,-1.1657,-1.1628,-1.1606,-1.1574,-1.1521,-1.1473,-1.1418,-1.1402,-1.138,-1.1339,-1.1339,-1.1329,-1.1326,-1.1315,-1.1304,-1.13,-1.1346,-1.1345,-1.1345,-1.1345,0,0,-1.1902,-1.182,-1.1811,-1.1783,-1.172,-1.1686,-1.1645,-1.1592,-1.1569,-1.1524,-1.1489,-1.1425,-1.1416,-1.1383,-1.1357,-1.1333,-1.1313,-1.1326,-1.1324,-1.1326,-1.1266,-1.1274,-1.127,-1.1301,-1.13,-1.1299,-1.1271,0,-1.1876,-1.1802,-1.1767,-1.1708,-1.1668,-1.1637,-1.1602,-1.156,-1.1529,-1.149,-1.1456,-1.1412,-1.1403,-1.1383,-1.1359,-1.1321,-1.1301,-1.1323,-1.1267,-1.1266,-1.1282,-1.1264,-1.1271,-1.1247,-1.1266,-1.1266,-1.1265,0,-1.1835,-1.1791,-1.1729,-1.1673,-1.1654,-1.1623,-1.1573,-1.1536,-1.1488,-1.1467,-1.1432,-1.1406,-1.1363,-1.1363,-1.1302,-1.1318,-1.1294,-1.1272,-1.127,-1.1263,-1.1264,-1.1256,-1.1238,-1.1234,-1.1258,-1.1259,-1.1259,0,-1.184,-1.1766,-1.1719,-1.1696,-1.1628,-1.1607,-1.1578,-1.153,-1.1501,-1.1457,-1.1438,-1.1389,-1.1363,-1.1326,-1.1288,-1.1292,-1.1231,-1.1228,-1.1212,-1.1214,-1.12,-1.1202,-1.1178,-1.1185,-1.1185,-1.1185,-1.1186,0,-1.1814,-1.1777,-1.1721,-1.1692,-1.165,-1.1611,-1.157,-1.1539,-1.1497,-1.1462,-1.1432,-1.1399,-1.1352,-1.1313,-1.1284,-1.1238,-1.1226,-1.1208,-1.1201,-1.1211,-1.1213,-1.1194,-1.1194,-1.1184,-1.1185,-1.1185,-1.1185,0,-1.1812,-1.1773,-1.172,-1.1661,-1.1646,-1.1618,-1.1567,-1.1538,-1.1507,-1.1462,-1.145,-1.14,-1.1353,-1.1313,-1.1251,-1.1231,-1.1184,-1.1175,-1.1201,-1.1197,-1.1183,-1.1185,-1.1146,-1.1139,-1.1152,-1.1152,-1.1151,0,-1.1798,-1.1769,-1.1708,-1.1683,-1.1654,-1.1614,-1.1584,-1.1545,-1.1515,-1.1459,-1.1437,-1.1389,-1.1348,-1.1275,-1.1233,-1.1186,-1.1176,-1.1165,-1.1168,-1.118,-1.1175,-1.1178,-1.1175,-1.1165,-1.1165,-1.1165,-1.1165,0,-1.1777,-1.176,-1.1719,-1.1672,-1.1638,-1.1599,-1.1558,-1.1539,-1.1492,-1.1461,-1.1413,-1.1382,-1.1319,-1.1272,-1.1221,-1.119,-1.117,-1.1165,-1.1159,-1.1168,-1.1184,-1.1176,-1.1201,-1.1166,-1.1166,-1.1166,-1.1166,-1.1165,-1.1768,-1.1742,-1.1695,-1.1651,-1.1617,-1.158,-1.1551,-1.1516,-1.1476,-1.1423,-1.1402,-1.1354,-1.1307,-1.1237,-1.1207,-1.1169,-1.1165,-1.1156,-1.1154,-1.1152,-1.1154,-1.1191,-1.1159,-1.1159,-1.1159,-1.1159,-1.1159,0,-1.1746,-1.1715,-1.1675,-1.162,-1.1586,-1.1571,-1.1526,-1.1498,-1.1456,-1.1415,-1.1376,-1.1322,-1.1277,-1.1232,-1.1184,-1.1162,-1.1152,-1.1151,-1.1152,-1.1145,-1.116,-1.117,-1.116,-1.116,-1.116,-1.116,-1.116,-1.116,-1.173,-1.1685,-1.1662,-1.16,-1.1568,-1.1522,-1.1497,-1.1464,-1.1431,-1.1372,-1.1335,-1.1306,-1.1264,-1.1213,-1.117,-1.1158,-1.1142,-1.1144,-1.1129,-1.1144,-1.1144,-1.1144,-1.1154,-1.1141,-1.1141,-1.1118,-1.1118,-1.1118]},{"header":{"parameterUnit":"m.s-1","parameterCategory":1,"la1":30.2991,"la2":30.254,"lo1":-89.0895,"lo2":-89.0444,"dy":0.0017,"dx":0.0017,"nx":28,"ny":28,"refTime":"2025-09-11T21:00:00:Z","depth":0,"parameterNumber":3,"parameterNumberName":"V-component_of_WINDS"},"data":[0,0,0,0,0,0,0,0,0,0,0,0,0,0,0,0,0,0,0,0,0,0,0,0,0,0,0,0,0,0,0,0,0,0,0,0,0,0,0,0,0,0,0,0,0,0,0,0,0,0,0,0,0,0,0,0,0,0,-0.1029,-0.1029,0,-0.0977,-0.0976,-0.0976,-0.1002,-0.1003,-0.1004,-0.1006,-0.0953,-0.0951,-0.0948,0,0,0,0,0,0,0,0,0,0,0,0,0,-0.1154,-0.1152,-0.1029,-0.1029,-0.1028,-0.0977,-0.0976,-0.0976,-0.1001,-0.1003,-0.1005,-0.1006,-0.0954,-0.0951,-0.0948,0,0,0,0,0,0,0,0,0,0,0,0,0,-0.1101,-0.1151,-0.1029,-0.1035,-0.1035,-0.0977,-0.0976,-0.0976,-0.1001,-0.1003,-0.1005,-0.1007,-0.0955,-0.0952,-0.0948,-0.0882,0,0,-0.0935,-0.0934,0,0,0,0,0,0,0,0,-0.1104,-0.1096,-0.1035,-0.1034,-0.1034,-0.0998,-0.1001,-0.0944,-0.1001,-0.1014,-0.1006,-0.1008,-0.0967,-0.0962,-0.0948,-0.088,-0.0878,-0.0935,-0.0933,-0.0931,-0.093,0,0,0,0,0,0,0,-0.1107,-0.1098,-0.1009,-0.1034,-0.1033,-0.1041,-0.1035,-0.0991,-0.098,-0.1013,-0.1015,-0.1008,-0.0967,-0.0951,-0.0947,-0.0877,-0.0935,-0.0932,-0.0929,-0.0928,-0.0757,-0.0755,0,0,0,0,0,0,-0.111,-0.1101,-0.101,-0.1007,-0.1074,-0.1037,-0.1031,-0.1007,-0.098,-0.0978,-0.1006,-0.1009,-0.0957,-0.0951,-0.0945,-0.087,-0.0931,-0.0927,-0.0925,-0.0759,-0.0757,-0.0754,0,0,0,0,0,0,-0.1113,-0.1102,-0.1012,-0.1055,-0.1044,-0.1032,-0.1006,-0.1005,-0.099,-0.0975,-0.0974,-0.0992,-0.0959,-0.0951,-0.0899,-0.0869,-0.0925,-0.0922,-0.0762,-0.0759,-0.0756,-0.0718,0,0,0,0,0,0,-0.1116,-0.1103,-0.1077,-0.1054,-0.1041,-0.0966,-0.1004,-0.1003,-0.0983,-0.0986,-0.0962,-0.096,-0.096,-0.0904,-0.0895,-0.0864,-0.0919,-0.0765,-0.076,-0.0757,-0.0722,-0.0714,-0.0707,0,0,0,0,0,-0.1121,-0.1068,-0.1076,-0.1065,-0.1009,-0.0964,-0.0957,-0.0958,-0.098,-0.0955,-0.0946,-0.096,-0.0873,-0.0899,-0.0888,-0.0856,-0.0767,-0.0762,-0.0757,-0.0725,-0.0715,-0.0707,0,0,0,0,0,0,-0.1088,-0.1065,-0.1073,-0.1011,-0.099,-0.0969,-0.0937,-0.0947,-0.0919,-0.0923,-0.0926,-0.092,-0.0867,-0.0856,-0.0885,-0.0793,-0.0823,-0.0816,-0.0803,-0.0793,-0.0786,-0.0791,-0.0915,0,0,0,0,0,-0.1073,-0.1038,-0.102,-0.0967,-0.0956,-0.0948,-0.0929,-0.0931,-0.0909,-0.09,-0.0887,-0.0865,-0.0834,-0.0812,-0.0782,-0.0719,-0.0716,-0.0692,-0.0685,-0.0679,-0.0673,-0.0643,-0.0634,-0.0739,-0.0739,-0.0739,0,0,-0.1043,-0.1026,-0.1004,-0.096,-0.0944,-0.0909,-0.094,-0.0901,-0.0876,-0.0894,-0.0846,-0.0835,-0.0811,-0.0755,-0.0729,-0.0744,-0.0643,-0.0673,-0.0668,-0.0666,-0.0637,-0.0628,-0.0619,-0.0735,-0.0736,-0.0736,0,0,-0.0971,-0.0953,-0.0909,-0.0892,-0.0867,-0.0863,-0.0852,-0.083,-0.0824,-0.0775,-0.0789,-0.0759,-0.0702,-0.0686,-0.067,-0.0594,-0.0607,-0.0584,-0.0546,-0.0517,-0.0508,-0.0501,-0.0477,-0.0468,-0.0578,-0.0578,-0.0578,0,-0.0937,-0.0885,-0.0885,-0.0846,-0.0828,-0.0843,-0.0799,-0.0783,-0.0749,-0.0736,-0.0753,-0.0685,-0.0669,-0.0611,-0.0593,-0.0578,-0.0569,-0.0588,-0.0509,-0.0502,-0.0495,-0.0473,-0.0463,-0.0575,-0.0576,-0.0576,-0.0576,0,-0.0846,-0.0809,-0.0777,-0.0745,-0.0722,-0.0681,-0.0677,-0.0654,-0.0659,-0.0653,-0.0604,-0.0586,-0.0554,-0.054,-0.0543,-0.0483,-0.0493,-0.0509,-0.054,-0.0483,-0.0462,-0.0453,-0.0572,-0.0573,-0.0574,-0.0574,0,0,-0.0753,-0.0723,-0.0711,-0.0698,-0.0672,-0.0644,-0.0604,-0.0573,-0.0555,-0.0531,-0.05,-0.0452,-0.0468,-0.045,-0.0452,-0.0426,-0.0371,-0.0446,-0.0445,-0.0435,-0.0307,-0.0298,-0.0288,-0.0378,-0.0377,-0.0375,-0.0311,0,-0.0682,-0.0612,-0.0613,-0.0549,-0.0517,-0.0531,-0.0497,-0.0478,-0.0472,-0.0444,-0.0437,-0.0406,-0.0426,-0.0416,-0.0391,-0.0383,-0.0346,-0.0387,-0.0352,-0.0351,-0.0361,-0.0276,-0.0265,-0.0205,-0.0302,-0.03,-0.0299,0,-0.059,-0.0565,-0.0498,-0.0479,-0.0466,-0.0435,-0.0408,-0.038,-0.036,-0.0358,-0.0338,-0.0345,-0.0307,-0.0336,-0.0285,-0.0313,-0.0298,-0.0293,-0.029,-0.029,-0.0324,-0.0276,-0.0185,-0.0178,-0.0286,-0.0287,-0.0288,0,-0.0533,-0.0482,-0.0436,-0.0424,-0.04,-0.0379,-0.0368,-0.0349,-0.0332,-0.0307,-0.0296,-0.0268,-0.0253,-0.0231,-0.0231,-0.0252,-0.018,-0.0209,-0.0179,-0.018,-0.0166,-0.0167,-0.0075,-0.0151,-0.0151,-0.0151,-0.0151,0,-0.0456,-0.0416,-0.0411,-0.0384,-0.034,-0.034,-0.0297,-0.0288,-0.0272,-0.0244,-0.0253,-0.0227,-0.0226,-0.02,-0.0199,-0.0159,-0.0151,-0.0149,-0.015,-0.015,-0.0151,-0.0143,-0.0148,-0.0149,-0.0149,-0.015,-0.015,0,-0.0386,-0.0381,-0.0333,-0.0315,-0.0309,-0.0278,-0.0263,-0.0238,-0.0232,-0.0197,-0.0189,-0.0181,-0.015,-0.0147,-0.0111,-0.0111,-0.0063,-0.0066,-0.007,-0.0072,-0.0044,-0.0048,0.0055,0.0067,-0.0014,-0.0013,-0.0012,0,-0.0339,-0.0309,-0.0288,-0.027,-0.0258,-0.0228,-0.0211,-0.021,-0.0192,-0.0167,-0.0145,-0.0116,-0.0093,-0.0044,-0.0035,-0.0009,-0.0014,0.002,-0.001,-0.0012,-0.0018,-0.0021,-0.0019,0.0025,0.0026,0.0027,0.0027,0,-0.0257,-0.0256,-0.023,-0.0203,-0.0182,-0.0161,-0.0141,-0.0126,-0.0124,-0.0102,-0.0071,-0.0053,-0.0018,0.001,0.0036,0.0046,0.0036,0.0037,0.0045,0.0043,0.0038,0.0038,-0.0058,0.0034,0.0033,0.0033,0.0033,0.0032,-0.0199,-0.0174,-0.0156,-0.0127,-0.0113,-0.0095,-0.0071,-0.0063,-0.0037,-0.0009,-0.001,0.0023,0.0041,0.0074,0.0086,0.0111,0.0099,0.0112,0.0114,0.0116,0.0117,0.0037,0.0116,0.0116,0.0116,0.0116,0.0116,0,-0.0121,-0.011,-0.0083,-0.0056,-0.0034,-0.0044,-0.0024,-0.0005,0.0024,0.0042,0.0064,0.0098,0.0125,0.0136,0.0162,0.0179,0.0175,0.0186,0.0183,0.0184,0.0128,0.0117,0.0188,0.0188,0.0188,0.0188,0.0188,0.0188,-0.0077,-0.0037,-0.0034,0.0013,0.0023,0.0055,0.0067,0.0083,0.0097,0.0135,0.0157,0.0164,0.0178,0.0204,0.0228,0.023,0.0238,0.025,0.025,0.0196,0.0189,0.0182,0.0171,0.0253,0.0253,0.0304,0.0305,0.0305]}]]